Regional Weather Roundup
Issued by NWS

Home | Current Version | Previous Version | Text Only | Print | Product List | Glossary Off
Versions: 1 2 3 4 5 6 7 8 9 10 11 12 13 14 15 16 17 18 19 20 21 22 23 24 25 26 27

000
ASUS45 KCYS 260710
RWRWY

WYOMING REGIONAL WEATHER ROUNDUP
NATIONAL WEATHER SERVICE CHEYENNE WY
100 AM MDT SUN MAR 26 2017

NOTE:  "FAIR" INDICATES FEW OR NO CLOUDS BELOW 12,000 FEET
WITH NO SIGNIFICANT WEATHER AND/OR OBSTRUCTIONS TO VISIBILITY.

WYZ001-260800-
YELLOWSTONE NATIONAL PARK

CITY           SKY/WX    TMP DP  RH WIND       PRES   REMARKS
LK YELLOWSTONE   N/A     23  20  88 CALM      30.00S
W YELLOWSTONE  NOT AVBL

$$
WYZ002>013-054>058-071-098>099-260800-
NORTHERN WYOMING

CITY           SKY/WX    TMP DP  RH WIND       PRES   REMARKS
JACKSON        FAIR      27  25  93 S3        29.98S
CODY           FAIR      36  30  79 W3        29.95S
GREYBULL       MOCLDY    43  40  89 E3        29.91S
WORLAND        CLOUDY    41  40  96 W5        29.92S
SHERIDAN       LGT RAIN  38  37  97 S5        29.95F WCI  34
BUFFALO        LGT RAIN  36  32  85 NW10      29.94S WCI  28
GILLETTE       CLOUDY    42  36  79 N15       29.90S
HULETT         CLOUDY    43  36  75 N9        29.88F
NEWCASTLE      FAIR      46  32  57 N12       29.82S

$$
WYZ014>020-022>026-101>103-260800-
CENTRAL WYOMING

CITY           SKY/WX    TMP DP  RH WIND       PRES   REMARKS
BIG PINEY      FAIR      27  22  81 NW14      29.97S WCI  16
PINEDALE       FAIR      30  25  80 NW15      29.95F WCI  19
DUBOIS         FAIR      32  21  64 W15       29.93F WCI  22
LANDER         CLOUDY    38  37  97 NW5       29.91S WCI  34
RIVERTON       LGT RAIN  37  35  92 N7        29.92R WCI  32
CASPER         LGT RAIN  40  39  97 N8        29.89S WCI  34
DOUGLAS        CLOUDY    42  33  70 NW10      29.87R

$$
WYZ021-027>030-104>119-260800-
SOUTHERN WYOMING

CITY           SKY/WX    TMP DP  RH WIND       PRES   REMARKS
EVANSTON       FAIR      31  27  85 W5        30.01F WCI  26
KEMMERER         N/A     30  27  86 NW8       29.98F WCI  23
FORT BRIDGER   PTSUNNY   33  32  96 W9        30.03R WCI  25
ROCK SPRINGS   CLOUDY    37  32  82 NW10      29.95S WCI  30
DIXON            N/A     40  37  89 W5        29.94F
RAWLINS        LGT RAIN  40  35  83 SW10      29.89F WCI  33
SARATOGA       DRIZZLE   37  37 100 SW8       29.90S WCI  31
LARAMIE        LGT RAIN  37  34  89 W9        29.89S WCI  30
CHEYENNE       CLOUDY    43  30  60 W5        29.85S
TORRINGTON     FAIR      48  30  49 SE6       29.80S
PINE BLUFFS    FAIR      43  28  56 S3        29.84S

$$




USA.gov is the U.S. government's official web portal to all federal, state and local government web resources and services.